Theta_e
314 312 313 313 312 312 313 313 313 312 314 314 314 315 315 316 317 322 325 321 323 323 321 324 328 328 327 323 319 315 319 324 324 325 323 320 322 317 320 328 329 329 328 328 329
315 314 312 313 312 312 313 313 313 313 314 313 311 313 314 317 319 320 318 322 323 324 324 326 328 326 323 324 321 326 324 322 320 321 323 321 322 322 322 324 330 331 329 327 327
314 315 314 312 312 312 312 313 312 313 313 311 310 312 315 318 313 314 313 318 323 324 323 324 327 325 326 324 323 320 327 321 319 320 320 323 321 321 323 325 327 326 325 325 325
314 314 314 313 311 311 311 312 312 312 313 310 309 312 316 318 302 318 318 317 320 324 322 324 324 329 327 328 323 327 323 321 320 321 322 326 322 324 321 322 320 317 320 325 324
315 315 314 313 312 310 311 312 313 313 313 310 310 312 318 317 314 318 317 318 318 323 322 322 326 325 327 325 324 326 326 324 322 323 323 322 324 324 320 319 317 321 326 325 326
316 315 315 314 312 310 310 312 312 312 313 310 310 315 316 311 311 312 314 317 320 323 321 323 324 322 325 324 324 323 324 324 324 325 325 325 324 322 321 316 319 325 326 325 326
316 315 315 314 313 310 309 311 311 312 313 310 311 315 314 310 315 316 315 319 321 323 318 321 322 324 322 324 321 324 328 324 324 324 324 323 325 323 321 319 319 325 325 326 327
316 316 315 314 313 311 309 310 310 313 313 310 310 314 311 311 311 315 319 321 323 323 320 320 320 321 323 321 324 328 328 327 325 324 324 324 327 320 321 316 316 316 323 326 327
314 316 316 314 313 311 310 309 310 312 312 311 312 311 310 310 313 309 315 320 320 319 320 320 320 320 322 326 326 327 326 326 325 324 325 323 325 322 321 317 317 316 317 324 326
312 314 316 315 313 312 310 309 308 309 309 311 312 311 309 312 312 311 314 320 319 320 320 321 321 320 322 322 324 321 325 323 324 325 323 323 325 321 320 318 318 320 315 321 324
311 312 316 315 313 312 310 310 309 309 310 310 309 307 308 311 313 314 314 316 317 320 322 320 323 321 322 320 319 319 319 319 320 320 325 326 326 324 320 320 319 318 316 317 323
310 311 314 315 314 312 310 307 306 305 310 307 308 309 311 314 314 314 315 315 317 318 316 320 322 318 317 318 322 320 322 322 320 321 324 324 325 323 322 321 320 320 320 317 317
310 310 312 315 314 313 309 306 306 306 306 308 308 308 311 312 311 313 314 312 314 316 319 315 315 317 320 322 322 323 326 324 324 323 323 326 328 325 322 321 321 320 320 320 317
309 309 311 314 314 312 309 306 306 304 303 306 309 307 310 310 312 311 314 313 313 315 314 315 313 315 317 319 321 326 322 324 325 326 328 325 331 325 323 324 323 322 322 321 319
307 307 309 310 314 312 309 306 306 302 307 302 307 306 308 310 309 314 314 314 314 314 313 312 315 314 315 316 318 321 319 321 324 326 325 324 325 324 322 324 323 321 322 322 321
305 305 309 312 314 311 308 306 304 305 307 305 306 309 311 308 309 314 314 312 312 314 314 313 310 313 313 313 313 317 320 320 321 322 323 322 324 323 322 322 321 321 322 322 320
305 305 307 312 312 310 306 305 307 306 299 306 307 308 308 309 309 311 314 315 314 315 315 312 311 311 312 317 316 316 319 319 322 323 319 319 323 322 319 320 322 321 320 320 320
303 306 307 310 310 308 306 306 309 303 298 304 305 308 308 308 307 310 313 312 311 309 309 312 307 311 310 315 316 318 319 320 315 317 317 319 325 321 318 319 319 318 319 319 319
302 303 306 307 310 307 307 309 307 304 300 306 307 307 308 307 306 307 310 310 310 310 307 307 308 310 310 311 313 314 319 316 319 316 322 320 317 316 316 318 318 318 319 319 318
304 303 304 306 305 307 308 309 306 302 305 305 303 305 305 308 307 307 305 305 306 309 307 309 309 310 311 313 313 313 314 316 319 322 321 317 318 319 316 317 315 316 318 318 318
302 303 303 305 305 305 310 310 303 301 304 303 302 301 302 307 305 306 305 305 304 306 307 309 308 310 313 314 314 317 316 320 319 320 319 317 313 311 315 315 315 314 313 313 312
302 303 302 304 301 305 309 305 302 302 303 303 302 302 303 305 304 306 306 304 304 306 310 307 308 305 311 311 311 313 315 314 321 322 322 319 319 311 308 307 305 304 304 303 303
298 300 302 305 307 307 308 305 302 305 305 304 304 305 303 305 305 305 305 304 305 307 307 308 306 301 309 309 310 314 316 317 318 318 321 322 319 311 310 311 311 302 303 303 302
299 303 302 304 300 305 306 305 304 304 302 302 303 304 304 305 305 305 305 308 306 307 310 309 311 305 304 308 308 312 315 317 318 319 318 318 319 317 316 315 314 314 313 308 302
296 302 300 303 303 305 305 304 306 306 302 303 305 306 307 307 307 306 306 307 308 309 311 309 309 308 309 310 312 311 311 312 315 315 319 317 317 316 316 315 314 314 314 313 312
299 300 299 302 302 305 305 305 305 304 304 306 306 306 304 306 306 307 308 307 309 309 312 311 314 311 309 309 308 308 307 310 312 313 315 315 314 313 312 312 312 312 311 311 311
295 296 300 303 304 306 305 304 304 303 301 303 305 304 305 304 303 303 302 302 303 309 311 312 311 306 302 302 306 311 309 308 307 309 311 313 313 311 312 312 313 313 313 313 312
Wind_Speed
29 26 26 25 23 20 21 19 17 15 13 10 11 9 7 5 5 8 6 6 8 10 2 1 1 2 5 4 3 1 3 3 5 6 6 1 5 7 2 1 3 3 2 2 18
31 30 29 27 25 23 23 20 17 14 15 10 9 9 7 5 5 8 9 10 11 7 3 3 1 2 3 2 2 3 4 8 5 5 5 5 4 2 5 6 3 3 4 5 29
35 32 32 29 26 25 24 21 19 18 16 12 10 8 7 6 2 6 16 15 12 10 10 5 1 2 3 1 3 5 6 4 3 4 3 5 5 6 3 3 3 2 4 7 14
37 36 35 32 27 25 26 22 20 19 17 12 11 9 9 8 6 3 6 11 18 11 8 6 3 2 4 4 2 2 6 5 5 7 3 3 5 5 8 9 6 7 6 13 13
41 40 37 34 30 26 26 24 21 19 17 13 12 11 10 3 6 8 1 3 19 14 12 5 4 4 5 4 4 2 3 4 7 7 5 3 7 5 8 10 7 3 9 12 17
45 43 40 37 33 28 26 26 25 22 20 16 14 14 5 5 5 8 3 5 18 19 11 11 7 6 4 4 6 4 6 4 5 6 4 4 6 6 7 6 9 9 10 11 18
47 45 42 40 36 31 28 26 25 23 21 18 16 16 4 11 4 3 6 6 16 22 7 12 4 5 4 2 3 1 3 5 5 2 4 2 12 8 14 7 8 10 10 11 18
49 47 45 43 39 34 30 27 25 22 21 17 16 11 5 10 17 5 6 6 14 18 2 16 9 4 1 1 2 5 3 10 2 9 4 6 21 5 11 9 11 9 7 10 14
48 49 47 46 42 36 31 28 25 22 19 16 11 7 5 7 7 19 7 8 13 11 7 10 8 4 3 2 3 3 7 9 10 11 5 9 9 5 12 8 9 10 10 11 11
48 49 49 48 44 39 33 29 23 20 18 15 4 4 4 5 9 12 13 14 5 8 3 4 4 5 5 5 10 9 10 5 8 4 7 8 18 9 9 5 11 16 11 12 13
47 49 51 51 48 43 36 25 9 4 17 5 6 2 2 3 8 6 18 10 5 4 7 5 7 14 16 14 5 4 4 11 6 6 9 15 21 17 18 15 12 15 12 12 14
48 46 51 56 52 49 44 13 27 10 12 3 1 2 3 6 4 7 19 6 6 15 6 4 20 8 5 8 12 20 14 16 5 6 8 13 22 17 17 17 17 19 21 15 13
46 48 51 57 56 54 46 37 37 31 6 13 3 8 4 5 4 14 14 6 4 9 15 11 3 12 8 11 16 15 15 11 13 3 7 7 24 21 14 19 18 20 22 19 19
42 46 48 49 56 56 44 42 40 16 4 6 10 7 6 5 4 10 20 6 5 15 7 8 9 4 6 14 9 13 13 12 9 6 7 6 13 17 8 21 21 20 22 23 21
36 43 47 53 40 32 51 46 42 5 7 10 10 11 11 9 8 8 15 3 8 8 8 7 6 12 17 5 6 8 7 9 8 7 11 18 10 10 7 17 21 15 21 23 22
41 41 42 47 37 57 49 46 19 6 8 8 9 16 16 10 3 8 9 1 3 5 3 2 2 3 11 5 11 2 3 5 3 5 11 23 9 20 14 21 24 17 19 21 21
36 43 41 42 26 56 54 25 10 9 2 12 12 21 22 12 9 14 17 12 8 6 11 2 5 3 1 4 3 4 4 4 3 6 12 4 9 20 10 18 22 20 21 19 18
34 38 37 41 51 59 43 13 11 8 8 3 12 22 15 20 9 12 15 17 14 4 6 9 5 11 7 9 4 8 11 6 6 4 5 3 9 11 11 20 16 16 16 12 14
33 30 29 40 33 59 20 25 10 23 10 12 16 24 8 12 10 7 17 23 17 15 9 6 5 2 4 5 12 6 9 12 10 7 5 5 9 5 10 12 14 14 13 18 15
21 18 29 35 27 30 24 15 10 10 11 22 7 11 12 26 11 18 16 15 8 23 1 6 2 1 3 4 5 5 1 4 5 5 9 11 11 11 6 8 11 15 17 17 15
13 5 13 37 30 15 20 15 10 15 19 8 8 7 8 23 17 16 14 5 20 16 10 4 4 2 5 7 8 6 12 6 3 6 4 8 8 8 16 17 17 10 10 9 10
5 8 10 39 12 14 15 11 10 17 6 5 6 5 11 18 18 14 16 8 10 15 22 5 4 4 7 2 1 5 13 17 7 8 6 8 16 4 7 7 6 9 12 8 9
5 2 8 28 11 12 13 13 15 20 14 7 4 4 3 14 8 8 9 7 13 17 17 14 4 3 3 4 5 6 14 10 16 11 16 8 13 1 10 14 17 10 11 10 7
3 3 3 5 1 14 21 12 14 20 4 5 6 12 11 13 4 12 11 4 10 13 10 20 5 9 11 4 2 6 10 13 19 11 24 22 28 21 18 18 16 19 18 13 7
2 3 3 5 5 16 16 14 19 11 3 4 3 14 12 7 3 8 7 4 5 11 8 10 5 6 5 3 3 4 5 9 20 27 12 29 25 31 19 18 20 23 25 21 23
3 3 0 7 10 15 11 14 29 12 9 13 12 18 5 12 11 15 11 5 6 4 12 6 2 4 3 6 7 13 17 17 21 20 21 30 35 41 21 18 19 19 15 17 18
1 2 1 14 9 14 5 18 26 21 3 10 18 11 6 11 7 6 7 7 10 13 19 8 5 3 4 1 3 9 19 18 18 24 24 24 38 32 22 20 21 22 23 25 25
Wind_Direction
229 227 230 230 228 226 228 229 231 227 225 216 213 216 214 209 202 188 210 209 211 247 299 282 193 108 81 86 49 107 83 197 213 165 163 32 38 326 294 71 286 199 188 286 176
228 226 227 226 222 226 223 226 224 216 219 214 206 201 202 193 197 219 224 217 226 215 212 68 97 110 56 56 36 129 152 214 211 168 194 150 133 296 38 343 267 317 321 155 168
229 226 226 226 224 220 222 221 220 219 220 216 206 194 183 163 31 239 230 219 215 217 223 249 149 89 105 167 191 165 188 220 227 219 190 166 167 159 95 316 214 273 286 178 178
230 227 227 225 225 222 220 218 211 219 213 211 200 186 167 173 210 123 102 214 208 194 189 161 118 165 139 190 183 188 237 200 188 194 173 227 139 182 168 218 192 265 240 176 194
229 226 225 225 224 220 218 214 209 211 208 204 201 176 161 190 249 182 76 317 194 184 176 147 172 138 192 190 119 223 253 234 227 180 218 163 246 276 222 215 236 186 165 187 203
227 225 223 222 221 219 216 215 213 216 207 201 197 175 153 207 211 216 215 159 178 179 175 166 184 192 188 181 182 207 229 255 273 259 243 234 267 135 264 192 173 168 192 195 211
225 224 221 220 217 215 212 212 211 210 203 196 186 186 227 227 169 161 170 179 186 184 160 193 159 179 140 155 206 200 270 289 247 292 268 202 265 220 244 264 229 202 194 195 217
224 222 218 217 215 211 209 207 205 198 192 193 186 177 236 231 237 233 145 138 176 189 199 203 190 122 175 143 137 185 189 250 194 173 223 186 257 296 249 211 241 236 232 197 212
225 220 214 213 211 207 202 200 199 190 185 186 179 165 243 208 209 215 188 158 152 169 179 155 142 177 127 197 235 189 251 226 247 186 181 197 263 238 231 218 241 243 223 211 222
224 220 211 208 209 203 195 192 193 194 186 181 195 164 220 213 177 187 183 155 144 125 87 187 179 174 201 183 221 226 233 242 251 202 187 235 256 280 283 248 233 254 241 225 212
222 220 209 201 203 197 182 158 142 199 190 180 183 218 149 154 139 160 170 142 112 167 184 193 198 216 214 221 224 274 237 252 266 230 216 234 253 247 249 254 251 254 248 225 222
219 219 212 199 194 185 172 180 182 155 180 139 357 100 145 169 119 172 164 152 165 193 140 175 229 209 231 222 228 241 254 260 275 249 217 262 263 253 242 244 237 245 253 242 241
215 216 211 196 188 174 179 187 174 145 140 203 187 191 157 173 176 183 174 131 145 164 192 197 234 179 193 212 223 236 242 249 262 297 268 301 280 267 250 255 249 249 252 252 237
214 213 210 213 180 178 181 177 169 167 115 203 197 234 180 147 236 175 187 146 173 197 141 231 249 229 214 235 218 253 222 250 270 261 267 153 285 263 253 260 247 239 240 242 234
210 214 210 210 182 180 178 168 168 147 203 178 170 169 154 170 136 188 180 136 168 166 164 213 195 216 237 172 175 270 261 266 267 268 294 262 269 283 248 261 255 244 243 245 240
218 219 211 211 216 172 165 162 139 153 210 161 147 166 159 180 165 132 180 132 145 157 107 183 286 200 229 181 199 246 36 321 258 255 256 256 231 270 240 254 265 255 244 242 235
212 216 214 210 220 160 159 152 179 197 132 162 172 171 170 169 149 172 180 188 167 154 202 121 215 152 220 155 97 151 166 272 255 207 247 209 210 245 261 245 245 249 252 246 240
207 206 214 215 213 162 157 174 200 126 187 173 156 162 173 153 176 181 176 194 215 176 137 187 286 164 175 206 151 199 196 213 215 231 279 170 236 254 226 235 243 245 252 258 237
200 206 220 216 199 167 159 187 182 158 163 132 129 161 158 179 159 154 194 204 201 193 171 150 255 66 111 136 174 191 226 232 273 260 290 242 282 287 231 239 239 255 267 258 246
176 196 226 209 224 192 172 172 181 142 121 136 145 173 167 180 154 185 178 198 204 198 145 199 141 186 132 108 238 184 236 200 223 246 241 254 260 248 302 269 256 244 245 257 264
176 198 204 205 206 191 200 163 167 160 139 156 155 129 177 175 183 188 196 225 190 184 175 171 109 138 129 202 182 187 231 242 229 228 222 263 259 199 212 231 254 274 262 277 277
160 205 202 174 192 204 194 142 130 162 123 154 113 114 160 168 176 181 202 218 181 153 195 177 126 177 195 124 237 241 224 215 240 231 239 268 262 322 255 251 274 276 282 275 263
134 144 206 173 193 208 162 150 171 157 171 158 130 129 156 159 151 168 181 208 168 175 176 177 204 84 343 262 207 216 222 232 239 271 260 263 264 293 265 268 276 257 268 279 271
134 154 205 171 166 175 152 146 151 168 106 94 101 119 112 161 18 174 166 172 172 182 168 163 168 188 209 143 143 191 211 224 232 249 250 246 262 250 272 276 288 290 287 289 287
169 190 203 146 192 161 162 141 147 147 66 150 50 158 140 140 104 167 144 109 77 175 168 170 217 203 252 210 252 220 242 239 230 243 246 259 257 264 252 268 281 282 284 286 287
146 168 354 129 154 131 154 160 157 149 150 183 165 170 153 157 176 168 139 137 163 133 172 189 178 152 230 211 249 260 246 227 237 252 258 262 273 262 282 281 283 278 290 286 283
18 44 35 155 149 156 151 160 164 149 21 169 147 140 103 150 128 130 106 107 159 170 189 175 158 121 266 229 311 272 241 228 235 237 232 252 254 270 262 257 261 272 270 270 277